AirNav   Pilot Hours Calculator
 
 824 users online  

8TN3 Raby Airpark
Farragut, Tennessee, USA

GOING TO FARRAGUT?


FAA INFORMATION EFFECTIVE 07 OCTOBER 2021

Location

FAA Identifier: 8TN3
Lat/Long: 35-50-30.0000N 084-10-52.0000W
35-50.500000N 084-10.866667W
35.8416667,-84.1811111
(estimated)
Elevation: 830 ft. / 253 m (estimated)
Variation: 04W (1995)
From city: 2 miles NE of FARRAGUT, TN
Time zone: UTC -4 (UTC -5 during Standard Time)
Zip code: 37922

Airport Operations

Airport use: Private use. Permission required prior to landing
Activation date: 06/1998
Control tower: no
ARTCC: ATLANTA CENTER
FSS: NASHVILLE FLIGHT SERVICE STATION
Attendance: UNATNDD
Segmented circle: no

Airport Communications

WX ASOS at TYS (9 nm E): PHONE 865-981-4053
WX AWOS-3 at DKX (17 nm NE): 125.375 (865-579-6151)

Nearby radio navigation aids

VOR radial/distance  VOR name  Freq  Var
VXVr258/14.4VOLUNTEER VORTAC116.4003W
HCHr087/39.0HINCH MOUNTAIN VOR/DME117.6002W

 
NDB name  Hdg/Dist  Freq  Var  ID
MC MINN COUNTY038/32.624203WMMI -- -- ..
JEFFERSON249/37.934604WJXT .--- -..- -

Airport Services

Runway Information

Runway 5/23

Dimensions: 1300 x 50 ft. / 396 x 15 m
Surface: turf
RUNWAY 5  RUNWAY 23
Traffic pattern: leftleft
Obstructions: 40 ft. trees40 ft. trees

Airport Ownership and Management from official FAA records

Ownership: Privately-owned
Owner: JASON RABY
1313 CHOTO RD.
KNOXVILLE, TN 37922
Phone 865-966-3108
Manager: PAUL ROBERTSON
1108 HARVEY ROAD
KNOXVILLE, TN 37922
Phone 865-966-1649

Airport Operational Statistics

Aircraft based on the field: 2
Single engine airplanes: 1
Helicopters: 1
    

Additional Remarks

FOR CD CTC ATLANTA ARTCC AT 770-210-7692.

Instrument Procedures

There are no published instrument procedures at 8TN3.

Some nearby airports with instrument procedures:

KTYS - Mc Ghee Tyson Airport (9 nm E)
KDKX - Knoxville Downtown Island Airport (17 nm NE)
KMNV - Monroe County Airport (20 nm SW)
KRKW - Rockwood Municipal Airport (25 nm W)
KJAU - Colonel Tommy C Stiner Airfield (30 nm N)
 
Loc | Ops | Rwys | IFR | FBO | Links
Com | Nav | Svcs | Stats | Notes
Area around 8TN3 (Raby Airpark)
 
Road maps at: MapQuest Bing Google
 
Aerial photo
No photo
 
Sectional chart

 
Airport distance calculator
Flying to Raby Airpark? Find the distance to fly.

From to 8TN3

Sunrise and sunset
Times for 19-Oct-2021
 Local
(UTC-4)
 Zulu
(UTC)
Morning civil twilight07:2211:22
Sunrise07:4811:48
Sunset18:5622:56
Evening civil twilight19:2123:21

Current date and time
Zulu (UTC)  19-Oct-2021 12:04:30
Local (UTC-4)  19-Oct-2021 08:04:30
 
METAR
KTYS 
10nm E 
191153Z 00000KT 10SM FEW001 FEW250 07/06 A3024 RMK AO2 SLP240 FG BNK S-SW T00670056 10094 20061 53017
KOQT 
11nm N 
191153Z AUTO 00000KT 1/4SM FG VV002 08/08 A3027 RMK AO2 SLP252 60000 T00830083 10089 20078 53017
KDKX 
17nm NE 
191155Z AUTO 00000KT M1/4SM FG OVC002 08/08 A3027 RMK A01
TAF
KTYS 
10nm E 
191120Z 1912/2012 VRB03KT P6SM SKC TEMPO 1912/1913 5SM BR FEW002 FM201000 00000KT 4SM BR SCT003
NOTAMs
Click for the latest NOTAMs
NOTAMs are issued by the DoD/FAA and will open in a separate window not controlled by AirNav.

 

 
 

Would you like to see your business listed on this page?

 If your business provides an interesting product or service to pilots, flight crews, aircraft, or users of the Raby Airpark, you should consider listing it here.  To start the listing process, click on the button below
 
Add a business
 

Other Pages about Raby Airpark

Update a link
 
Copyright © AirNav, LLC. All rights reserved. Privacy Policy  Contact